Theta_e
318 318 320 320 319 320 321 322 319 314 315 321 323 329 330 330 330 328 325 324 323 319 319 319 320 321 322 323 323 323 323 323 325 325 323 319 316 315
320 319 318 317 319 320 320 322 322 319 317 323 324 327 329 330 332 328 326 324 321 321 319 318 318 318 319 319 319 320 321 321 321 320 320 319 319 316
320 322 320 318 319 320 321 323 323 323 319 322 326 328 327 329 330 328 326 323 322 319 319 318 316 315 316 316 316 317 318 318 318 318 317 317 316 316
320 321 320 320 318 320 322 322 323 323 322 320 324 325 325 325 328 328 328 325 320 320 318 317 315 314 314 314 313 313 312 313 314 315 315 315 315 315
321 320 320 319 318 321 321 321 323 324 323 322 320 322 323 325 324 320 317 318 320 321 316 316 315 314 313 312 311 310 308 307 307 309 311 312 313 313
321 322 322 322 321 321 321 320 320 321 321 319 317 315 318 317 318 317 313 312 311 315 314 313 314 314 313 311 311 311 308 306 305 305 305 305 306 307
322 324 324 322 321 321 322 320 320 319 318 315 312 311 311 311 313 311 310 311 313 315 309 309 308 307 308 310 313 313 309 307 305 304 304 303 302 302
322 323 323 321 318 315 314 315 319 318 315 312 310 309 308 310 310 310 310 309 310 314 310 311 308 307 307 306 307 305 304 304 303 303 303 303 302 301
323 323 324 325 321 321 310 309 309 310 313 313 311 310 309 312 311 310 310 310 309 313 312 310 310 309 310 309 306 305 303 302 302 302 302 301 300 299
324 324 324 322 320 319 313 315 314 316 316 316 313 313 314 314 315 314 312 310 312 308 311 309 303 303 303 301 303 302 301 301 300 300 300 300 299 298
323 324 323 320 310 305 315 312 309 306 303 303 306 304 303 303 310 316 311 309 304 304 304 301 300 299 300 302 303 303 301 300 300 300 300 300 299 298
316 318 309 316 301 302 313 311 308 306 303 301 300 299 299 300 302 305 306 301 299 298 304 300 300 299 298 304 304 301 300 301 300 299 300 300 299 298
312 313 311 298 298 301 305 311 308 305 303 307 306 307 308 306 306 305 303 303 300 300 304 301 300 302 299 296 296 298 298 297 297 297 299 298 298 297
310 310 306 295 296 297 302 296 296 301 304 305 305 303 303 301 300 300 302 304 303 302 304 305 302 298 293 292 292 296 296 295 294 295 295 297 296 296
310 304 295 293 293 294 294 295 298 302 305 303 300 299 298 300 300 300 301 302 304 303 302 300 297 294 294 292 291 291 291 293 294 293 293 293 292 292
301 296 295 294 294 295 294 296 301 304 305 301 298 298 299 299 298 299 300 301 298 294 296 297 295 293 290 290 290 288 289 288 290 290 292 291 291 291
295 293 291 291 293 293 295 296 303 304 301 298 298 298 298 298 298 298 296 293 292 291 291 292 293 293 291 290 288 288 288 288 290 290 288 288 290 289
297 295 294 293 295 299 302 302 302 300 299 298 298 299 297 297 296 295 293 292 291 290 290 289 289 288 288 290 294 287 287 287 289 289 288 286 287 291
302 301 300 299 300 302 304 303 300 299 299 301 297 296 296 295 294 293 293 292 290 289 289 289 288 286 283 281 287 294 287 288 287 286 286 285 286 289
305 306 306 306 306 305 302 300 298 298 298 297 297 298 299 296 294 294 292 290 290 288 288 288 287 286 283 282 284 287 290 285 286 286 286 287 289 292
304 305 307 309 309 306 302 301 300 299 298 297 300 301 297 297 295 291 291 287 288 288 286 286 288 286 288 286 281 281 285 290 291 287 287 286 285 287
306 307 307 307 306 304 301 300 299 297 298 301 300 298 297 296 294 292 291 290 289 288 287 288 288 286 284 282 278 280 282 282 288 290 291 290 286 283
306 308 307 305 303 302 301 301 300 299 301 300 299 298 297 295 294 292 292 291 289 288 287 285 285 284 283 282 277 277 280 280 283 281 282 288 289 289
Wind_Speed
5 5 5 4 5 4 4 7 6 6 2 2 4 7 7 7 7 4 5 9 10 9 8 9 9 7 7 7 8 7 8 8 8 10 9 10 11 11
4 7 6 4 6 5 4 3 4 5 3 3 3 9 10 8 10 6 6 8 8 9 9 7 7 8 8 9 9 8 7 8 9 9 9 10 12 13
6 8 7 6 6 5 4 4 5 4 6 3 4 7 5 10 7 5 4 4 4 8 9 10 9 10 9 9 10 9 9 9 9 10 11 13 13 13
8 9 7 6 7 6 5 6 6 4 6 10 4 3 3 4 5 6 4 4 5 8 9 11 10 10 10 11 10 10 10 10 10 12 14 15 15 16
8 9 9 8 7 7 7 7 5 5 5 6 4 2 2 2 3 2 2 2 2 4 8 8 10 10 12 12 11 11 11 11 13 14 15 16 16 16
9 8 8 9 10 9 8 7 6 5 3 3 3 3 3 3 2 2 1 0 2 2 5 7 7 10 12 12 13 13 14 14 15 15 14 13 14 16
7 8 7 9 12 9 5 4 4 3 3 3 2 2 2 2 3 1 2 1 2 4 2 4 2 3 5 8 13 13 12 11 11 10 11 13 14 15
9 8 9 12 8 8 4 4 6 6 5 4 3 3 2 3 3 4 3 2 2 1 1 4 2 3 4 3 4 6 6 8 11 12 14 14 14 17
8 10 9 6 6 4 3 5 10 10 8 7 6 5 4 6 6 3 4 3 2 3 2 2 2 1 2 4 11 10 8 7 9 10 9 10 12 15
9 10 9 6 5 5 2 4 6 5 4 4 6 6 4 5 5 5 5 2 3 2 3 2 4 3 3 3 7 8 6 6 9 8 8 9 10 11
8 7 6 6 7 7 6 6 6 4 6 7 7 9 7 4 5 5 3 3 2 2 4 3 2 2 1 2 1 4 8 10 15 15 14 15 15 13
4 5 8 7 8 10 7 7 7 4 5 4 4 7 6 8 10 3 5 4 4 2 3 3 2 2 4 1 2 4 6 10 13 13 14 14 16 8
5 4 3 9 8 8 8 6 6 7 5 6 6 5 5 4 3 5 4 5 4 3 3 2 0 1 3 4 4 5 5 4 4 5 9 13 14 13
5 4 5 8 8 10 7 9 10 8 5 5 5 4 5 5 4 4 6 8 7 7 3 3 3 3 1 2 3 5 4 5 4 7 6 10 11 13
4 6 11 9 10 8 9 10 9 5 5 5 5 4 2 4 4 4 6 7 10 10 7 6 5 3 3 1 2 3 5 5 6 6 7 9 8 7
7 6 6 6 5 6 5 5 4 5 6 7 4 3 3 3 3 2 3 3 6 4 5 7 6 4 2 2 2 3 3 4 4 4 7 7 7 6
8 4 3 3 3 3 3 4 4 5 6 4 4 4 4 4 3 3 4 4 4 2 4 5 6 6 4 3 3 3 4 4 7 8 6 7 8 6
4 4 4 5 5 5 5 4 3 6 5 5 5 4 5 5 5 3 3 5 5 3 3 3 4 4 5 4 5 2 3 5 8 8 8 7 8 11
4 4 5 6 5 5 5 5 5 4 6 6 5 5 5 4 7 5 5 4 4 4 3 2 4 4 5 4 4 6 5 7 7 7 5 4 8 11
4 5 5 6 5 5 5 5 5 5 4 5 6 6 6 7 5 6 5 5 5 3 3 3 4 3 2 1 3 4 10 5 6 8 9 5 8 16
6 5 5 6 5 6 7 7 9 9 8 8 7 8 8 7 7 5 5 6 6 3 4 2 2 5 1 2 3 4 5 10 10 10 11 9 9 12
10 9 6 5 7 9 9 9 9 9 9 9 8 8 7 8 7 6 5 5 4 4 4 3 2 2 1 2 3 5 4 3 5 12 15 12 7 10
10 10 7 7 7 9 11 11 11 10 9 9 8 8 8 8 8 5 5 5 5 4 3 2 1 1 1 1 3 4 5 5 9 7 5 14 17 18
Wind_Direction
110 107 115 110 101 95 121 153 143 144 135 156 134 152 142 137 156 134 151 177 180 171 173 185 196 197 201 214 222 225 228 236 238 226 230 248 258 262
101 110 103 104 105 108 121 118 99 125 125 99 74 145 151 152 163 161 189 177 182 181 183 191 204 212 218 221 225 233 235 237 240 243 243 245 249 251
105 121 108 112 116 115 103 96 100 101 121 91 100 124 126 144 162 171 167 172 192 192 195 202 210 217 222 230 233 234 238 240 239 243 245 245 247 252
116 122 116 108 99 93 92 96 91 74 119 126 115 112 116 155 159 166 176 180 194 203 205 214 219 227 228 235 239 239 239 243 241 241 241 243 246 249
126 130 125 118 105 109 95 100 93 95 81 117 111 92 89 145 117 119 185 211 219 220 224 231 230 232 232 236 242 246 245 241 240 240 243 246 250 253
131 132 127 120 118 116 102 104 98 90 88 88 87 94 111 89 96 141 219 230 253 240 231 223 219 234 240 243 245 246 246 246 246 247 248 251 251 251
104 111 101 102 98 98 111 99 102 100 110 111 95 80 92 102 164 162 169 151 264 213 243 246 229 259 266 250 257 265 278 287 284 281 279 274 274 270
119 107 120 116 118 114 84 199 182 167 157 137 127 154 180 138 151 186 156 117 283 149 144 309 124 284 284 286 307 280 287 329 324 300 284 283 281 271
134 137 142 153 146 150 244 277 211 184 181 152 164 183 174 192 158 166 162 162 221 346 107 290 31 330 330 45 45 28 352 315 295 292 297 302 301 293
144 163 163 166 156 166 162 67 96 109 170 179 169 172 183 183 180 175 165 161 62 17 23 93 344 14 33 44 60 59 19 338 299 297 312 316 312 300
145 159 145 160 191 178 137 123 96 65 30 61 125 140 132 142 113 99 106 110 54 0 350 110 341 311 215 256 292 17 351 353 353 344 347 342 339 336
109 166 179 177 169 177 159 156 131 173 151 111 68 58 63 54 50 90 150 145 155 71 323 91 322 2 360 237 340 8 6 3 351 7 354 357 353 349
151 170 178 158 173 180 160 159 161 151 139 98 83 83 90 114 94 67 75 108 108 97 271 119 108 57 45 307 326 12 26 352 358 346 353 355 348 346
166 167 144 154 134 125 127 136 124 104 88 88 94 82 76 66 62 80 86 82 72 99 34 53 97 86 85 357 344 348 339 338 2 356 347 338 333 333
162 155 133 139 117 90 117 131 117 105 119 113 113 103 113 147 109 60 58 85 77 62 41 43 79 61 74 78 304 345 331 330 0 345 341 337 326 326
103 97 125 128 112 129 107 83 109 138 140 129 117 117 98 75 94 139 114 82 72 39 31 50 71 84 61 80 98 321 304 327 320 323 336 316 311 300
110 98 101 119 154 147 106 112 121 124 117 113 127 118 124 143 94 42 67 71 92 76 22 354 6 37 35 75 32 353 314 316 335 334 322 315 318 301
116 148 179 183 175 167 152 137 128 128 130 134 138 149 144 115 103 81 84 89 101 90 63 1 6 29 18 358 75 359 354 327 319 314 327 324 311 315
159 171 174 174 178 177 169 156 147 157 138 148 146 121 105 122 137 129 110 112 97 87 55 26 43 48 26 352 306 56 352 314 313 316 293 280 290 301
183 181 180 174 178 170 157 144 137 143 140 133 130 142 147 143 136 123 125 122 110 103 88 48 51 58 102 265 290 286 313 295 316 321 319 306 279 274
200 199 187 177 183 168 159 153 157 163 162 156 156 158 160 148 128 127 124 130 125 115 111 137 200 210 160 33 336 291 288 317 319 324 322 322 323 328
203 205 183 166 166 166 164 163 161 162 165 166 162 155 153 132 133 137 152 142 136 149 151 173 223 44 82 165 268 275 291 275 295 326 321 314 319 323
190 187 161 154 165 172 168 170 171 169 169 159 159 151 146 136 135 153 144 128 140 137 147 162 335 21 243 212 241 284 302 310 347 342 315 320 327 322